EW6466 Weather Reports


time (UTC)temp
C
wind
direction
speed
KPH
gust
KPH
rain 1hr
cm
rain 24hr
cm
rain mn
cm
humidity
%
barometer
mb
20260506134523 21 191 0.0 9.7 0.00 0.00 0.00 87 1007.3
20260506133021 21 150 1.6 8.0 0.00 0.00 0.00 87 1006.7
20260506131519 21 149 1.6 4.8 0.00 0.00 0.00 87 1006.4
20260506130017 21 149 1.6 4.8 0.00 0.00 0.00 87 1006.5
20260506124517 21 146 0.0 14.5 0.00 0.00 0.00 87 1006.3
20260506123015 21 171 6.4 14.5 0.00 0.00 0.00 87 1006.2
20260506121514 21 194 3.2 11.3 0.00 0.00 0.00 87 1006.1
20260506120013 21 59 4.8 19.3 0.00 0.00 0.00 87 1006.0
20260506114513 22 38 0.0 6.4 0.00 0.00 0.00 87 1006.0
20260506113015 22 259 0.0 8.0 0.00 0.00 0.00 87 1006.1
20260506111511 22 173 3.2 16.1 0.00 0.00 0.00 87 1006.2
20260506110010 22 159 6.4 17.7 0.00 0.00 0.00 87 1006.3
20260506104510 22 146 1.6 14.5 0.00 0.00 0.00 87 1006.3
20260506103008 22 163 4.8 14.5 0.00 0.00 0.00 87 1006.2
20260506101507 22 243 4.8 16.1 0.00 0.00 0.00 87 1006.2
20260506100007 22 194 4.8 12.9 0.00 0.00 0.00 87 1006.0
20260506094506 22 178 6.4 16.1 0.00 0.00 0.00 87 1006.0
20260506093011 22 5 4.8 12.9 0.00 0.00 0.00 87 1006.1
20260506091503 22 240 9.7 20.9 0.00 0.00 0.00 87 1005.8
20260506090002 22 202 8.0 20.9 0.00 0.00 0.00 86 1006.0
20260506084603 22 182 3.2 14.5 0.00 0.00 0.00 86 1005.9
20260506083058 22 216 1.6 9.7 0.00 0.00 0.00 86 1005.6
20260506081556 22 51 4.8 12.9 0.00 0.00 0.00 86 1005.8
20260506080107 22 226 4.8 19.3 0.00 0.00 0.00 85 1005.9
20260506073102 23 65 4.8 16.1 0.00 0.00 0.00 85 1005.9
20260506071548 23 236 8.0 20.9 0.00 0.00 0.00 85 1006.2
20260506061556 23 52 3.2 14.5 0.00 0.00 0.00 84 1006.5
20260506044537 23 28 1.6 12.9 0.00 0.00 0.00 82 1006.4
20260506043035 24 18 1.6 16.1 0.00 0.00 0.00 81 1006.3
20260506041535 24 49 0.0 9.7 0.00 0.00 0.00 81 1006.2
20260506040034 23 49 6.4 14.5 0.00 0.00 0.00 81 1005.8
20260506034534 23 329 3.2 9.7 0.00 0.00 0.00 82 1005.7
20260506033034 23 296 1.6 6.4 0.00 0.00 0.00 82 1005.5
20260506031533 23 296 4.8 6.4 0.00 0.00 0.00 82 1005.5
20260506030033 23 296 0.0 8.0 0.00 0.00 0.00 81 1005.2
20260506024531 23 262 0.0 4.8 0.00 0.00 0.00 80 1005.0
20260506023030 23 262 1.6 8.0 0.00 0.00 0.00 79 1004.9
20260506021530 25 179 1.6 6.4 0.00 0.00 0.00 77 1004.5
20260506020058 25 178 0.0 4.8 0.00 0.00 0.00 75 1004.4
20260506014528 26 178 1.6 6.4 0.00 0.00 0.00 73 1004.3
20260506013027 26 178 1.6 4.8 0.00 0.00 0.00 71 1004.1
20260506011528 27 178 0.0 3.2 0.00 0.00 0.00 68 1003.9
20260506010030 27 178 1.6 4.8 0.00 0.00 0.00 66 1003.7
20260506004526 27 178 1.6 9.7 0.00 0.00 0.00 65 1003.8
20260506003026 28 175 3.2 6.4 0.00 0.00 0.00 63 1003.8
20260506001524 28 175 1.6 9.7 0.00 0.00 0.00 63 1003.9
20260506000041 28 173 3.2 8.0 0.00 0.00 0.00 63 1003.9
20260505234523 28 180 3.2 8.0 0.00 0.00 0.00 61 1003.9
20260505233021 28 140 1.6 12.9 0.00 0.00 0.00 60 1003.8
20260505231525 29 184 4.8 11.3 0.00 0.00 0.00 61 1003.8
20260505230031 29 172 6.4 11.3 0.00 0.00 0.00 59 1003.7
20260505224518 29 184 6.4 12.9 0.00 0.00 0.00 59 1003.8
20260505223016 29 198 1.6 11.3 0.00 0.00 0.00 59 1003.9
20260505221515 29 161 4.8 16.1 0.00 0.00 0.00 59 1004.0
20260505220014 29 160 8.0 16.1 0.00 0.00 0.00 59 1004.0
20260505214512 30 184 4.8 11.3 0.00 0.00 0.00 58 1004.2
20260505213011 30 163 4.8 14.5 0.00 0.00 0.00 55 1004.3
20260505211511 30 188 8.0 14.5 0.00 0.00 0.00 55 1004.5
20260505210006 30 202 4.8 14.5 0.00 0.00 0.00 56 1004.6
20260505204506 30 205 8.0 22.5 0.00 0.00 0.00 56 1004.9
20260505203010 30 160 8.0 16.1 0.00 0.00 0.00 57 1005.1
20260505201601 30 178 8.0 16.1 0.00 0.00 0.00 57 1005.2
20260505200058 29 215 8.0 16.1 0.00 0.00 0.00 58 1005.3
20260505194556 29 193 8.0 12.9 0.00 0.00 0.00 59 1005.6
20260505193054 29 184 4.8 17.7 0.00 0.00 0.00 60 1005.8
20260505191555 29 167 9.7 14.5 0.00 0.00 0.00 60 1006.0
20260505190055 28 153 4.8 14.5 0.00 0.00 0.00 62 1006.1
20260505184545 27 148 4.8 14.5 0.00 0.00 0.00 63 1006.3
20260505183041 27 146 6.4 16.1 0.00 0.00 0.00 66 1006.6
20260505181554 26 167 6.4 12.9 0.00 0.00 0.00 71 1007.0
20260505180036 25 234 4.8 16.1 0.00 0.00 0.00 73 1007.0
20260505174538 25 181 4.8 11.3 0.00 0.00 0.00 75 1007.3
20260505173030 23 190 3.2 8.0 0.00 0.00 0.00 81 1007.5
20260505171533 22 213 6.4 11.3 0.00 0.00 0.00 83 1007.6
20260505170023 22 238 4.8 12.9 0.00 0.00 0.00 84 1007.5
20260505164521 21 213 6.4 11.3 0.00 0.00 0.00 85 1007.4
20260505163020 21 220 6.4 12.9 0.00 0.00 0.00 85 1007.3
20260505161519 21 234 4.8 14.5 0.00 0.00 0.00 86 1007.2
20260505153032 20 155 6.4 14.5 0.00 0.00 0.00 87 1007.5
20260505151516 20 190 4.8 16.1 0.00 0.00 0.00 87 1007.4